• In Belarus
  • List of Countries
  • For 7 days
  • Water Temperature
  • Weather Map
  • Weather Widgets
  • user-avatar
    Login

    Hourly Weather Klagenfurt

    Today, 25 May, Monday

    Time Temperature Precipitation Wind Pressure Humidity
    00:00 +8°C° 0 mm 1 mps 697 mmHg 75%
    01:00 +8°C° 0 mm 1 mps 697 mmHg 75%
    02:00 +7°C° 0 mm 1 mps 697 mmHg 76%
    03:00 +7°C° 0 mm 1 mps 697 mmHg 76%
    04:00 +6°C° 0 mm 0 mps 697 mmHg 77%
    05:00 +8°C° 0 mm 0 mps 697 mmHg 72%
    06:00 +9°C° 0 mm 0 mps 698 mmHg 68%
    07:00 +11°C° 0 mm 0 mps 698 mmHg 64%
    08:00 +14°C° 0 mm 1 mps 698 mmHg 59%
    09:00 +16°C° 0 mm 1 mps 698 mmHg 54%
    10:00 +19°C° 0 mm 1 mps 699 mmHg 49%
    11:00 +18°C° 0.5 mm 1 mps 698 mmHg 54%
    12:00 +18°C° 0.5 mm 1 mps 698 mmHg 58%
    13:00 +18°C° 0.5 mm 1 mps 697 mmHg 63%
    14:00 +18°C° 0.8 mm 1 mps 697 mmHg 65%
    15:00 +18°C° 0.8 mm 1 mps 696 mmHg 66%
    16:00 +16°C° 0.8 mm 1 mps 696 mmHg 67%
    17:00 +15°C° 0.4 mm 1 mps 696 mmHg 71%
    18:00 +13°C° 0.4 mm 1 mps 696 mmHg 76%
    19:00 +12°C° 0.4 mm 1 mps 696 mmHg 80%
    20:00 +11°C° 0.1 mm 1 mps 696 mmHg 83%
    21:00 +9°C° 0.1 mm 1 mps 696 mmHg 85%
    22:00 +8°C° 0.1 mm 1 mps 696 mmHg 88%
    23:00 +8°C° 0.1 mm 1 mps 696 mmHg 90%

    Tomorrow, 26 May, Tuesday

    Time Temperature Precipitation Wind Pressure Humidity
    00:00 +7°C° 0.1 mm 1 mps 697 mmHg 91%
    01:00 +7°C° 0.1 mm 1 mps 697 mmHg 93%
    02:00 +7°C° 0 mm 1 mps 697 mmHg 93%
    03:00 +6°C° 0 mm 1 mps 697 mmHg 94%
    04:00 +6°C° 0 mm 1 mps 697 mmHg 94%
    05:00 +7°C° 0 mm 1 mps 697 mmHg 90%
    06:00 +9°C° 0 mm 1 mps 697 mmHg 87%
    07:00 +10°C° 0 mm 1 mps 698 mmHg 83%
    08:00 +12°C° 0 mm 1 mps 698 mmHg 71%
    09:00 +14°C° 0 mm 1 mps 699 mmHg 58%
    10:00 +16°C° 0 mm 2 mps 699 mmHg 46%
    11:00 +16°C° 0.1 mm 2 mps 699 mmHg 45%
    12:00 +17°C° 0.1 mm 2 mps 699 mmHg 43%
    13:00 +18°C° 0.1 mm 2 mps 698 mmHg 41%
    14:00 +17°C° 0.2 mm 2 mps 698 mmHg 46%
    15:00 +16°C° 0.2 mm 2 mps 698 mmHg 51%
    16:00 +15°C° 0.2 mm 2 mps 697 mmHg 56%
    17:00 +14°C° 0.1 mm 2 mps 697 mmHg 62%
    18:00 +13°C° 0.1 mm 1 mps 697 mmHg 68%
    19:00 +12°C° 0.1 mm 1 mps 697 mmHg 74%
    20:00 +10°C° 0 mm 1 mps 698 mmHg 76%
    21:00 +9°C° 0 mm 1 mps 698 mmHg 77%
    22:00 +8°C° 0 mm 1 mps 698 mmHg 79%
    23:00 +7°C° 0 mm 1 mps 698 mmHg 80%

    Day after tomorrow, 27 May, Wednesday

    Time Temperature Precipitation Wind Pressure Humidity
    00:00 +7°C° 0 mm 1 mps 698 mmHg 82%
    01:00 +6°C° 0 mm 1 mps 698 mmHg 83%
    02:00 +6°C° 0 mm 1 mps 698 mmHg 84%
    03:00 +6°C° 0 mm 1 mps 698 mmHg 85%
    04:00 +5°C° 0 mm 1 mps 697 mmHg 85%
    05:00 +7°C° 0 mm 1 mps 698 mmHg 80%
    06:00 +9°C° 0 mm 1 mps 698 mmHg 74%
    07:00 +11°C° 0 mm 1 mps 699 mmHg 68%
    08:00 +13°C° 0 mm 1 mps 699 mmHg 59%
    09:00 +16°C° 0 mm 1 mps 699 mmHg 49%
    10:00 +19°C° 0 mm 1 mps 699 mmHg 40%
    11:00 +20°C° 0 mm 1 mps 699 mmHg 38%
    12:00 +21°C° 0 mm 1 mps 699 mmHg 36%
    13:00 +22°C° 0 mm 1 mps 699 mmHg 35%
    14:00 +21°C° 0 mm 1 mps 699 mmHg 36%
    15:00 +21°C° 0 mm 1 mps 698 mmHg 38%
    16:00 +20°C° 0 mm 1 mps 698 mmHg 39%
    17:00 +19°C° 0 mm 1 mps 697 mmHg 49%
    18:00 +16°C° 0 mm 1 mps 697 mmHg 59%
    19:00 +13°C° 0 mm 0 mps 697 mmHg 69%
    20:00 +12°C° 0 mm 0 mps 697 mmHg 71%
    21:00 +11°C° 0 mm 0 mps 697 mmHg 74%
    22:00 +9°C° 0 mm 0 mps 697 mmHg 76%
    23:00 +10°C° 0 mm 1 mps 697 mmHg 78%

    28 May, Thursday

    Time Temperature Precipitation Wind Pressure Humidity
    00:00 +9°C° 0 mm 1 mps 697 mmHg 80%
    01:00 +9°C° 0 mm 1 mps 697 mmHg 82%
    02:00 +9°C° 0 mm 1 mps 696 mmHg 83%
    03:00 +8°C° 0 mm 1 mps 696 mmHg 84%
    04:00 +8°C° 0 mm 1 mps 696 mmHg 85%
    05:00 +10°C° 0 mm 1 mps 696 mmHg 78%
    06:00 +11°C° 0 mm 0 mps 696 mmHg 72%
    07:00 +13°C° 0 mm 0 mps 696 mmHg 65%
    08:00 +15°C° 0 mm 0 mps 696 mmHg 58%
    09:00 +19°C° 0 mm 1 mps 696 mmHg 51%
    10:00 +21°C° 0 mm 1 mps 697 mmHg 44%
    11:00 +21°C° 0.1 mm 1 mps 696 mmHg 46%
    12:00 +21°C° 0.1 mm 1 mps 696 mmHg 47%
    13:00 +21°C° 0.1 mm 1 mps 695 mmHg 49%
    14:00 +20°C° 0.4 mm 1 mps 695 mmHg 55%
    15:00 +19°C° 0.4 mm 1 mps 694 mmHg 62%
    16:00 +18°C° 0.4 mm 1 mps 694 mmHg 68%
    17:00 +15°C° 0.6 mm 0 mps 693 mmHg 75%
    18:00 +14°C° 0.6 mm 0 mps 693 mmHg 81%
    19:00 +13°C° 0.6 mm 0 mps 693 mmHg 87%
    20:00 +13°C° 0.5 mm 1 mps 693 mmHg 89%
    21:00 +12°C° 0.5 mm 1 mps 693 mmHg 91%
    22:00 +11°C° 0.5 mm 1 mps 693 mmHg 92%
    23:00 +11°C° 0.5 mm 1 mps 693 mmHg 94%

    29 May, Friday

    Time Temperature Precipitation Wind Pressure Humidity
    00:00 +11°C° 0.5 mm 1 mps 693 mmHg 95%
    01:00 +9°C° 0.5 mm 0 mps 693 mmHg 97%
    02:00 +10°C° 0.2 mm 1 mps 693 mmHg 97%
    03:00 +9°C° 0.2 mm 1 mps 693 mmHg 97%
    04:00 +9°C° 0.2 mm 1 mps 693 mmHg 97%
    05:00 +9°C° 0 mm 1 mps 693 mmHg 96%
    06:00 +9°C° 0 mm 1 mps 692 mmHg 95%
    07:00 +9°C° 0 mm 1 mps 692 mmHg 94%
    08:00 +11°C° 0.1 mm 1 mps 692 mmHg 86%
    09:00 +12°C° 0.1 mm 1 mps 692 mmHg 77%
    10:00 +14°C° 0.1 mm 1 mps 692 mmHg 68%
    11:00 +15°C° 0.2 mm 1 mps 692 mmHg 65%
    12:00 +16°C° 0.2 mm 1 mps 692 mmHg 61%
    13:00 +18°C° 0.2 mm 1 mps 692 mmHg 57%
    14:00 +16°C° 0.4 mm 1 mps 691 mmHg 64%
    15:00 +16°C° 0.4 mm 1 mps 691 mmHg 71%
    16:00 +15°C° 0.4 mm 1 mps 690 mmHg 78%
    17:00 +14°C° 0.5 mm 1 mps 690 mmHg 83%
    18:00 +13°C° 0.5 mm 1 mps 690 mmHg 89%
    19:00 +11°C° 0.5 mm 0 mps 690 mmHg 94%
    20:00 +11°C° 0.4 mm 1 mps 690 mmHg 95%
    21:00 +10°C° 0.4 mm 1 mps 690 mmHg 96%
    22:00 +9°C° 0.4 mm 1 mps 690 mmHg 96%
    23:00 +9°C° 0.1 mm 1 mps 690 mmHg 97%

    30 May, Saturday

    Time Temperature Precipitation Wind Pressure Humidity
    00:00 +9°C° 0.1 mm 1 mps 690 mmHg 97%
    01:00 +8°C° 0.1 mm 0 mps 690 mmHg 97%
    02:00 +8°C° 0.1 mm 0 mps 690 mmHg 97%
    03:00 +8°C° 0.1 mm 0 mps 690 mmHg 97%
    04:00 +8°C° 0.1 mm 0 mps 690 mmHg 96%
    05:00 +8°C° 0 mm 0 mps 690 mmHg 96%
    06:00 +9°C° 0 mm 0 mps 690 mmHg 95%
    07:00 +10°C° 0 mm 1 mps 690 mmHg 94%
    08:00 +11°C° 0.3 mm 1 mps 691 mmHg 89%
    09:00 +12°C° 0.3 mm 1 mps 691 mmHg 85%
    10:00 +13°C° 0.3 mm 1 mps 691 mmHg 80%
    11:00 +14°C° 0.8 mm 1 mps 691 mmHg 81%
    12:00 +14°C° 0.8 mm 1 mps 691 mmHg 83%
    13:00 +14°C° 0.8 mm 1 mps 691 mmHg 84%
    14:00 +14°C° 1 mm 1 mps 691 mmHg 85%
    15:00 +13°C° 1 mm 1 mps 691 mmHg 86%
    16:00 +13°C° 1 mm 1 mps 690 mmHg 86%
    17:00 +12°C° 0.4 mm 1 mps 690 mmHg 89%
    18:00 +11°C° 0.4 mm 1 mps 691 mmHg 91%
    19:00 +11°C° 0.4 mm 1 mps 691 mmHg 93%
    20:00 +10°C° 0 mm 1 mps 691 mmHg 93%
    21:00 +8°C° 0 mm 1 mps 691 mmHg 93%
    22:00 +7°C° 0 mm 1 mps 691 mmHg 94%
    23:00 +7°C° 0 mm 1 mps 691 mmHg 94%
    Show more